When you browse on this site, cookies collect data to enhance your experience and personalize the content and advertising you see.
Visit our Privacy Policy to learn more. By continuing to use the site, you agree to this use of cookies and data.
  • In Hungary
  • List of Countries
  • For 7 days
  • Water Temperature
  • Weather Map
  • News
  • Weather Widgets
  • user-avatar
    Login

    Hourly Weather Onoprienovka

    Today, 15 October, Tuesday

    Time Temperature Precipitation Wind Pressure Humidity
    00:00 +3°C° 0 mm 5 mps 719 mmHg 85%
    01:00 +3°C° 0 mm 5 mps 720 mmHg 87%
    02:00 +3°C° 0 mm 5 mps 720 mmHg 88%
    03:00 +3°C° 0 mm 5 mps 720 mmHg 90%
    04:00 +3°C° 0 mm 5 mps 720 mmHg 91%
    05:00 +3°C° 0 mm 5 mps 720 mmHg 93%
    06:00 +3°C° 0 mm 4 mps 720 mmHg 94%
    07:00 +3°C° 0 mm 4 mps 719 mmHg 96%
    08:00 +3°C° 0.1 mm 5 mps 719 mmHg 93%
    09:00 +4°C° 0.1 mm 6 mps 719 mmHg 90%
    10:00 +5°C° 0.1 mm 7 mps 719 mmHg 87%
    11:00 +5°C° 1.2 mm 9 mps 718 mmHg 87%
    12:00 +5°C° 1.2 mm 10 mps 717 mmHg 87%
    13:00 +6°C° 1.2 mm 11 mps 716 mmHg 87%
    14:00 +7°C° 0.6 mm 11 mps 715 mmHg 85%
    15:00 +9°C° 0.6 mm 10 mps 715 mmHg 82%
    16:00 +12°C° 0.6 mm 10 mps 714 mmHg 80%
    17:00 +12°C° 0.2 mm 10 mps 714 mmHg 77%
    18:00 +12°C° 0.2 mm 9 mps 714 mmHg 74%
    19:00 +12°C° 0.2 mm 9 mps 714 mmHg 71%
    20:00 +11°C° 0 mm 9 mps 714 mmHg 75%
    21:00 +10°C° 0 mm 9 mps 713 mmHg 79%
    22:00 +10°C° 0 mm 9 mps 713 mmHg 83%
    23:00 +9°C° 0 mm 8 mps 713 mmHg 84%

    Tomorrow, 16 October, Wednesday

    Time Temperature Precipitation Wind Pressure Humidity
    00:00 +9°C° 0 mm 8 mps 714 mmHg 86%
    01:00 +7°C° 0 mm 8 mps 714 mmHg 87%
    02:00 +6°C° 0 mm 7 mps 715 mmHg 86%
    03:00 +5°C° 0 mm 7 mps 715 mmHg 85%
    04:00 +4°C° 0 mm 6 mps 716 mmHg 84%
    05:00 +4°C° 0 mm 6 mps 716 mmHg 83%
    06:00 +3°C° 0 mm 5 mps 717 mmHg 83%
    07:00 +4°C° 0 mm 4 mps 717 mmHg 82%
    08:00 +3°C° 0.1 mm 5 mps 717 mmHg 78%
    09:00 +3°C° 0.1 mm 5 mps 718 mmHg 74%
    10:00 +5°C° 0.1 mm 5 mps 719 mmHg 70%
    11:00 +4°C° 0 mm 6 mps 719 mmHg 66%
    12:00 +4°C° 0 mm 6 mps 720 mmHg 62%
    13:00 +5°C° 0 mm 7 mps 720 mmHg 58%
    14:00 +4°C° 0 mm 7 mps 721 mmHg 59%
    15:00 +4°C° 0 mm 7 mps 721 mmHg 60%
    16:00 +3°C° 0 mm 7 mps 721 mmHg 61%
    17:00 +2°C° 0 mm 6 mps 722 mmHg 65%
    18:00 +1°C° 0 mm 5 mps 722 mmHg 69%
    19:00 0°C° 0 mm 5 mps 723 mmHg 73%
    20:00 0°C° 0 mm 4 mps 723 mmHg 75%
    21:00 -1°C° 0 mm 4 mps 724 mmHg 77%
    22:00 -2°C° 0 mm 4 mps 724 mmHg 79%
    23:00 -2°C° 0 mm 4 mps 725 mmHg 81%

    Day after tomorrow, 17 October, Thursday

    Time Temperature Precipitation Wind Pressure Humidity
    00:00 -1°C° 0 mm 3 mps 725 mmHg 83%
    01:00 -2°C° 0 mm 3 mps 725 mmHg 86%
    02:00 -2°C° 0 mm 3 mps 726 mmHg 86%
    03:00 -2°C° 0 mm 2 mps 726 mmHg 86%
    04:00 -2°C° 0 mm 2 mps 726 mmHg 86%
    05:00 -3°C° 0 mm 2 mps 727 mmHg 85%
    06:00 -3°C° 0 mm 2 mps 727 mmHg 84%
    07:00 -3°C° 0 mm 2 mps 727 mmHg 83%
    08:00 -2°C° 0 mm 2 mps 727 mmHg 77%
    09:00 0°C° 0 mm 3 mps 728 mmHg 71%
    10:00 +1°C° 0 mm 3 mps 728 mmHg 65%
    11:00 +1°C° 0 mm 3 mps 728 mmHg 61%
    12:00 +2°C° 0 mm 3 mps 728 mmHg 58%
    13:00 +3°C° 0 mm 4 mps 728 mmHg 55%
    14:00 +3°C° 0 mm 4 mps 727 mmHg 56%
    15:00 +3°C° 0 mm 4 mps 727 mmHg 57%
    16:00 +3°C° 0 mm 4 mps 727 mmHg 58%
    17:00 +2°C° 0 mm 3 mps 727 mmHg 61%
    18:00 +2°C° 0 mm 3 mps 727 mmHg 64%
    19:00 +2°C° 0 mm 2 mps 727 mmHg 67%
    20:00 +1°C° 0 mm 3 mps 726 mmHg 67%
    21:00 +1°C° 0 mm 3 mps 726 mmHg 66%
    22:00 +1°C° 0 mm 3 mps 726 mmHg 66%
    23:00 0°C° 0 mm 4 mps 725 mmHg 66%

    18 October, Friday

    Time Temperature Precipitation Wind Pressure Humidity
    00:00 0°C° 0 mm 4 mps 725 mmHg 65%
    01:00 +1°C° 0 mm 5 mps 724 mmHg 64%
    02:00 +1°C° 0 mm 5 mps 724 mmHg 63%
    03:00 -1°C° 0 mm 6 mps 723 mmHg 62%
    04:00 -1°C° 0 mm 6 mps 723 mmHg 60%
    05:00 -1°C° 0 mm 6 mps 722 mmHg 60%
    06:00 -1°C° 0 mm 6 mps 722 mmHg 60%
    07:00 -1°C° 0 mm 7 mps 721 mmHg 60%
    08:00 +2°C° 0 mm 7 mps 721 mmHg 56%
    09:00 +2°C° 0 mm 8 mps 721 mmHg 52%
    10:00 +3°C° 0 mm 9 mps 720 mmHg 49%
    11:00 +5°C° 0 mm 9 mps 720 mmHg 46%
    12:00 +6°C° 0 mm 9 mps 720 mmHg 43%
    13:00 +8°C° 0 mm 9 mps 719 mmHg 41%
    14:00 +7°C° 0 mm 8 mps 719 mmHg 43%
    15:00 +8°C° 0 mm 7 mps 719 mmHg 44%
    16:00 +8°C° 0 mm 6 mps 719 mmHg 46%
    17:00 +7°C° 0 mm 6 mps 719 mmHg 54%
    18:00 +6°C° 0 mm 5 mps 719 mmHg 61%
    19:00 +6°C° 0 mm 4 mps 719 mmHg 68%
    20:00 +5°C° 0 mm 4 mps 719 mmHg 73%
    21:00 +4°C° 0 mm 4 mps 720 mmHg 78%
    22:00 +3°C° 0 mm 4 mps 720 mmHg 82%
    23:00 +1°C° 0 mm 5 mps 720 mmHg 78%

    19 October, Saturday

    Time Temperature Precipitation Wind Pressure Humidity
    00:00 0°C° 0 mm 5 mps 721 mmHg 73%
    01:00 -1°C° 0 mm 5 mps 721 mmHg 69%
    02:00 -2°C° 0 mm 5 mps 721 mmHg 70%
    03:00 -2°C° 0 mm 5 mps 722 mmHg 71%
    04:00 -4°C° 0 mm 5 mps 722 mmHg 72%
    05:00 -4°C° 0 mm 5 mps 723 mmHg 73%
    06:00 -5°C° 0 mm 6 mps 723 mmHg 75%
    07:00 -5°C° 0 mm 6 mps 724 mmHg 76%
    08:00 -4°C° 0 mm 6 mps 725 mmHg 72%
    09:00 -4°C° 0 mm 6 mps 725 mmHg 68%
    10:00 -3°C° 0 mm 7 mps 726 mmHg 64%
    11:00 -2°C° 0 mm 6 mps 726 mmHg 62%
    12:00 -2°C° 0 mm 6 mps 727 mmHg 60%
    13:00 -2°C° 0 mm 6 mps 727 mmHg 58%
    14:00 -2°C° 0 mm 6 mps 728 mmHg 59%
    15:00 -1°C° 0 mm 5 mps 728 mmHg 60%
    16:00 -1°C° 0 mm 5 mps 728 mmHg 60%
    17:00 -2°C° 0 mm 5 mps 728 mmHg 63%
    18:00 -3°C° 0 mm 4 mps 729 mmHg 66%
    19:00 -4°C° 0 mm 4 mps 729 mmHg 69%
    20:00 -4°C° 0 mm 4 mps 730 mmHg 69%
    21:00 -4°C° 0 mm 4 mps 730 mmHg 69%
    22:00 -4°C° 0 mm 4 mps 730 mmHg 69%
    23:00 -5°C° 0 mm 4 mps 730 mmHg 69%

    20 October, Sunday

    Time Temperature Precipitation Wind Pressure Humidity
    00:00 -5°C° 0 mm 4 mps 730 mmHg 69%
    01:00 -5°C° 0 mm 3 mps 731 mmHg 69%
    02:00 -5°C° 0 mm 3 mps 731 mmHg 70%
    03:00 -5°C° 0 mm 2 mps 731 mmHg 71%
    04:00 -5°C° 0 mm 2 mps 731 mmHg 72%
    05:00 -5°C° 0 mm 2 mps 731 mmHg 72%
    06:00 -5°C° 0 mm 2 mps 731 mmHg 72%
    07:00 -3°C° 0 mm 1 mps 731 mmHg 72%
    08:00 -4°C° 0 mm 2 mps 732 mmHg 63%
    09:00 -3°C° 0 mm 2 mps 732 mmHg 54%
    10:00 -2°C° 0 mm 2 mps 732 mmHg 45%
    11:00 +1°C° 0 mm 1 mps 732 mmHg 41%
    12:00 +2°C° 0 mm 1 mps 732 mmHg 38%
    13:00 +3°C° 0 mm 1 mps 732 mmHg 34%
    14:00 +3°C° 0 mm 1 mps 732 mmHg 36%
    15:00 +3°C° 0 mm 1 mps 732 mmHg 39%
    16:00 +1°C° 0 mm 0 mps 731 mmHg 42%
    17:00 +1°C° 0 mm 0 mps 731 mmHg 44%
    18:00 0°C° 0 mm 0 mps 731 mmHg 45%
    19:00 -1°C° 0 mm 0 mps 731 mmHg 47%
    20:00 -1°C° 0 mm 0 mps 731 mmHg 48%
    21:00 -2°C° 0 mm 0 mps 731 mmHg 48%
    22:00 -2°C° 0 mm 0 mps 731 mmHg 48%
    23:00 -2°C° 0 mm 0 mps 731 mmHg 48%
    Show more